Location: Red Deer
(52.2681°N, 113.8112°W)
Time: 03:14:22
(UTC-06:00)

Envisat - Visible Passes

Search period start: 22 April 2024 00:00
Search period end: 02 May 2024 00:00
Orbit: 762 x 764 km, 98.3° (Epoch: 21 April)

Date Brightness Start Highest point End Pass type
(mag) Time Alt. Az. Time Alt. Az. Time Alt. Az.
22 Apr 5.6 03:25:38 10° ENE 03:27:37 12° E 03:29:34 10° ESE visible
22 Apr 3.2 05:02:25 10° NNE 05:07:31 73° ESE 05:12:34 10° S visible
23 Apr 4.3 04:25:18 10° NNE 04:30:00 37° E 04:34:41 10° SSE visible
24 Apr 5.3 03:48:41 10° NE 03:52:18 19° E 03:55:53 10° SE visible
24 Apr 3.0 05:26:45 10° NNE 05:31:50 74° WNW 05:36:53 10° SSW visible
25 Apr 3.6 04:49:26 10° NNE 04:54:27 57° E 04:59:27 10° S visible
26 Apr 4.7 04:12:27 10° NNE 04:16:53 29° E 04:21:17 10° SSE visible
27 Apr 5.5 03:36:09 10° NE 03:39:05 15° E 03:42:01 10° ESE visible
27 Apr 3.1 05:13:42 10° NNE 05:18:49 88° ESE 05:23:54 10° SSW visible
28 Apr 4.0 04:36:29 10° NNE 04:41:22 45° E 04:46:13 10° S visible
29 Apr 5.0 03:59:39 10° NE 04:03:43 24° E 04:07:45 10° SE visible
30 Apr 5.6 03:23:59 10° ENE 03:25:51 12° E 03:27:42 10° ESE visible
30 Apr 3.3 05:00:40 10° NNE 05:05:46 71° ESE 05:10:50 10° S visible
01 May 4.4 04:23:33 10° NNE 04:28:15 36° E 04:32:54 10° SSE visible
